Location: Edinburgh
(55.9500°N, 3.1600°W)
Time: 03:07:59
(UTC+01:00)

N. Korean satellite - Pass Details

Date: 12 October 2017
Orbit: 459 x 517 km, 97.2° (Epoch: 23 October)

Event Time Altitude Azimuth Distance (km) Brightness Sun altitude
Rises 20:31:08 0° 219° (SW) 2,547 10.5 -19.1°
Reaches altitude 10° 20:34:36 10° 256° (WSW) 1,658 10.1 -19.6°
Maximum altitude 20:35:43 11° 274° (W) 1,583 10.3 -19.8°
Drops below altitude 10° 20:36:50 10° 293° (WNW) 1,653 10.5 -19.9°
Sets 20:40:17 0° 329° (NNW) 2,525 10.9 -20.4°
